STARLINK-11377, 62013

Orbit data source: Space-Track

STARLINK-11377, 62013 is a payload satellite owned by SpaceX/Seattle (US) in LEO that was launched on Mon, 18 Nov 2024 UTC via an FALCON 9 launch vehicle from the Air Force Western Test Range (AFWTR). Payload-class satellites include a variety of spacecraft equipped with specific instruments for various scientific and technological missions. These include communications satellites like Starlink; space stations such as the ISS; scientific satellites like the Hubble; Earth observation satellites from companies like Planet Labs, Umbra, and HawkEye 360; GPS; miniature CubeSats for education and research; and military/defense satellites.

Loading next visibility...
Identifier
62013, 2024-213F
Orbit
LEO
Country
Flag of USUS
Related business
Manufacturer
SpaceX/Seattle
Mission
Operational Commercial Communications
Bus & Motor
STARLINK V2MD, Unknown motor
Mass
960 kg wet, ~910 kg dry
Launch date (UTC)
2024-11-18 (1 year ago)
Launch vehicle
FALCON 9
Launch site
Air Force Western Test Range (AFWTR)
Object type
Payload
Rocket body
Debris
Shape & HBR
Box + 2 Pan, 18.1 m
Radar Cross Section
36.964 m², Large (>1 m²)

Expand to show TLE details & history
Last TLE update: 9 hours ago

TLE from 9 hours ago
0 STARLINK-11377
1 62013U 24213F   26123.48931953  .00177272  00000-0  14326-2 0  9994
2 62013  53.1561 131.0093 0001066 103.3741 256.7396 15.69784425 83521
Epoch: 2026-05-03T11:44Z
TLE epoch observation values (Epoch: 2026-05-03T11:44:37.207Z)
Latitude
Longitude
93.46214°
Altitude
360.593 km
Speed
7.694 km/s
True Right ascension
08h 44m 02s
True Declination
0° 00' 00"
Sunlit
Object was in daylight at epoch
Visualization orbit readout
Latitude
Unknown
Longitude
Unknown
Altitude
Unknown
Speed
Unknown
Apparent Right ascension
Unknown
Apparent Declination
Unknown
Sunlit
N/A
Visualization observer readout
Local Sidereal Time
04:21:48
Azimuth
Unknown
Elevation
Unknown
Doppler factor
Unknown
Orbital elements
Apogee altitude
360.493 km
Perigee altitude
359.057 km
Semi-major axis
6,737.912 km
Eccentricity
0.00011
Inclination
53.1561°
RAAN
131.0093°
Arg. of periapsis
103.3741°
True anomaly
256.72771°
Mean anomaly
256.7396°
Eccentric anomaly
256.73366°
Mean motion
3.92424 °/min
Orbital period
91.74 mins
BSTAR
0.0014326
Loading maneuver chart data...
Computing Atmospheric mass density...
Loading historical data...
Loading historical data...
Loading historical data...
Loading historical data...
Loading historical data...
Loading historical data...
Loading historical data...

Documentation

Showing up to 5 results
|